Torna al catalogo

FENGYUN 1C DEB

AttivoPO
NORAD 29986·DEBRIS·🇨🇳 China

Lanciato May 10, 1999 da Taiyuan Satellite Launch Center

Loading…

Prossimi Passaggi (prossime 24 ore)

TLE

AggiornatoSource: Space-Track

Epoca: Sep 14, 2026, 05:08 UTC

1 29986U 99025LL  26257.21429399  .00002198  00000-0  85180-3 0  9995
2 29986  99.3877 351.4831 0021970 281.2001 108.6194 14.31024348 14191

Traccia FENGYUN 1C DEB in tempo reale con AllMySat

Download on the App Store